Regional Weather Roundup
Issued by NWS

Home | Current Version | Previous Version | Graphics & Text | Print | Product List | Glossary On
Versions: 1 2 3 4 5 6 7 8 9 10 11 12 13 14 15 16 17 18 19 20 21 22 23 24 25 26 27 28 29 30 31 32 33 34 35 36 37 38 39 40 41 42 43 44 45 46 47 48 49 50
000
ASUS44 KMEG 021400
RWRTN
TENNESSEE HOURLY STATE WEATHER ROUNDUP
NATIONAL WEATHER SERVICE MEMPHIS TN
900 AM CDT THU JUL 02 2015

TNZ002-004-019-021-049-052-054-088>092-021500-
WEST TENNESSEE

CITY           SKY/WX    TMP DP  RH WIND       PRES   REMARKS
MEMPHIS INTL   CLOUDY    78  70  76 SW12      29.92S
NWS MEMPHIS      N/A     78 N/A N/A MISG        N/A
JACKSON        CLOUDY    79  72  79 SW12      29.91R
DYERSBURG        N/A    N/A N/A N/A MISG        N/A
PARIS          SUNNY     73  70  88 SE6       29.90F
LEXINGTON      MOSUNNY   79  72  78 SW9       29.92S
$$

TNZ008-025-027-028-033-062-065-066-021500-
NORTH MIDDLE TENNESSEE

CITY           SKY/WX    TMP DP  RH WIND       PRES   REMARKS
NASHVILLE      LGT RAIN  70  70 100 SE5       29.95S
CLARKSVILLE    CLOUDY    71  69  93 S5        29.91S
COOKEVILLE     PTSUNNY   70  70 100 E16G58    29.97S
CROSSVILLE     CLOUDY    68  65  90 CALM      30.03R
$$

TNZ061-075-076-078-094-096-097-021500-
SOUTH MIDDLE TENNESSEE

CITY           SKY/WX    TMP DP  RH WIND       PRES   REMARKS
FAYETTEVILLE   CLOUDY    72  72 100 SW7       29.97F
TULLAHOMA      CLOUDY    72  70  94 CALM      29.98R
WINCHESTER     PTSUNNY   75  70  83 SW7       29.97S
SHELBYVILLE    CLOUDY    72  70  94 CALM      29.98S
$$

TNZ017-018-042-046-047-021500-
NORTHEAST TENNESSEE

CITY           SKY/WX    TMP DP  RH WIND       PRES   REMARKS
TRI CITIES     LGT RAIN  68  65  90 SW6       30.00S FOG
ELIZABETHTON   DRIZZLE   66  64  94 CALM      30.01S
$$

TNZ012-013-036-069-073-074-021500-
CENTRAL EAST TENNESSEE

CITY           SKY/WX    TMP DP  RH WIND       PRES   REMARKS
KNOXVILLE      HVY RAIN  67  66  97 S9        29.99R FOG
OAK RIDGE      HVY RAIN  68  67  96 VRB3      30.00F VSB 1
GATLINBURG     CLOUDY    66  66 100 CALM      30.00R
$$

TNZ083-085-099-021500-
SOUTHEAST TENNESSEE

CITY           SKY/WX    TMP DP  RH WIND       PRES   REMARKS
CHATTANOOGA    CLOUDY    73  71  93 S6        29.97F FOG
$$

SKY/WX REPORTED AS FAIR MEANS FEW OR NO CLOUDS BELOW
12 THOUSAND FEET.




USA.gov is the U.S. government's official web portal to all federal, state and local government web resources and services.